Hazen, ND

8:07 AM CDT on August 20, 2017 (GMT -0500)
Mercer County Regional

Weather History for KHZE - November, 2012

Change the Weather History Date:

Thursday, November 22, 2012

  Actual Average (KN60) Record (KN60)
Temperature  
Mean Temperature 25 °F -  
Max Temperature 35 °F 31 °F 54 °F (2006)
Min Temperature 15 °F 15 °F -5 °F (2013)
Degree Days  
Heating Degree Days 40    
Moisture  
Dew Point 20 °F    
Average Humidity 78    
Maximum Humidity 93    
Minimum Humidity 68    
Precipitation  
Precipitation 0.69 in - - ()
Sea Level Pressure  
Sea Level Pressure 30.08 in    
Wind  
Wind Speed 16 mph (NW)    
Max Wind Speed 26 mph    
Max Gust Speed 36 mph    
Visibility 9 miles    
Events Rain , Snow    
Averages and records for this station are not official NWS values.
T = Trace of Precipitation, MM = Missing Value Source: NWS Daily Summary

Daily Weather History Graph

Daily Weather History Graph

Search for Another Location

Airport or City:

Trip Planner

Search our weather history database for the weather conditions in past years. The results will help you decide how hot, cold, wet, or windy it might be!

Date:

Astronomy

Nov. 22, 2012 Rise Set
Actual Time 8:01 AM CST 5:03 PM CST
Civil Twilight 7:27 AM CST 5:37 PM CST
Nautical Twilight 6:49 AM CST 6:15 PM CST
Astronomical Twilight 6:12 AM CST 6:51 PM CST
Moon 2:08 PM CST (11/22) 2:02 AM CST (11/22)
Length of Visible Light 10h 10m
Length of Day
9h 02m
Waxing Gibbous, 71% of the Moon is Illuminated
Nov 22
Waxing Gibbous
Nov 28
Full
Dec 6
Last Quarter
Dec 13
New
Dec 19
First Quarter

Hourly Weather History & Observations

Time (CST) Temp. Windchill Dew Point Humidity Pressure Visibility Wind Dir Wind Speed Gust Speed Precip Events Conditions
12:15 AM 35.6 °F 27.1 °F 32.0 °F 87% 29.75 in 7.0 mi NW 12.7 mph 20.7 mph N/A   Overcast
12:35 AM 35.6 °F 27.1 °F 32.0 °F 87% 29.76 in 7.0 mi NW 12.7 mph - N/A   Overcast
12:55 AM 33.8 °F 24.8 °F 32.0 °F 93% 29.76 in 7.0 mi NW 12.7 mph - N/A   Overcast
1:15 AM 33.8 °F 24.8 °F 32.0 °F 93% 29.76 in 7.0 mi NW 12.7 mph - N/A   Overcast
1:35 AM 33.8 °F 25.3 °F 32.0 °F 93% 29.75 in 7.0 mi NW 11.5 mph - N/A   Overcast
1:55 AM 35.6 °F 29.2 °F 32.0 °F 87% 29.76 in 8.0 mi WNW 8.1 mph - N/A   Overcast
2:15 AM 35.6 °F 29.9 °F 32.0 °F 87% 29.75 in 8.0 mi NW 6.9 mph - N/A   Overcast
2:35 AM 35.6 °F 28.6 °F 32.0 °F 87% 29.77 in 8.0 mi WNW 9.2 mph - N/A   Overcast
2:55 AM 35.6 °F 28.6 °F 32.0 °F 87% 29.78 in 9.0 mi WNW 9.2 mph - N/A   Overcast
3:15 AM 35.6 °F 28.6 °F 32.0 °F 87% 29.78 in 9.0 mi WNW 9.2 mph - N/A   Overcast
3:35 AM 35.6 °F 29.9 °F 32.0 °F 87% 29.79 in 8.0 mi WNW 6.9 mph - N/A   Overcast
3:55 AM 35.6 °F 27.1 °F 32.0 °F 87% 29.80 in 9.0 mi WNW 12.7 mph - N/A   Overcast
4:15 AM 35.6 °F 28.6 °F 32.0 °F 87% 29.81 in 8.0 mi WNW 9.2 mph 18.4 mph N/A   Overcast
4:35 AM 35.6 °F 27.1 °F 32.0 °F 87% 29.82 in 8.0 mi WNW 12.7 mph - N/A   Overcast
4:55 AM 35.6 °F 26.6 °F 32.0 °F 87% 29.82 in 7.0 mi NW 13.8 mph 17.3 mph N/A   Overcast
5:15 AM 35.6 °F 25.9 °F 32.0 °F 87% 29.83 in 5.0 mi NW 16.1 mph 20.7 mph N/A   Overcast
5:35 AM 33.8 °F 25.8 °F 32.0 °F 93% 29.84 in 8.0 mi NW 10.4 mph - N/A   Overcast
5:55 AM 33.8 °F 22.8 °F 32.0 °F 93% 29.84 in 9.0 mi NW 18.4 mph 25.3 mph N/A   Overcast
6:15 AM 32.0 °F 21.2 °F 30.2 °F 93% 29.86 in 10.0 mi NW 16.1 mph 20.7 mph N/A   Overcast
6:35 AM 32.0 °F 21.2 °F 26.6 °F 80% 29.86 in 10.0 mi NW 16.1 mph 24.2 mph N/A   Overcast
6:55 AM 32.0 °F 19.8 °F 26.6 °F 80% 29.88 in 10.0 mi NW 20.7 mph 24.2 mph N/A   Overcast
7:15 AM 32.0 °F 19.5 °F 26.6 °F 80% 29.90 in 10.0 mi NW 21.9 mph 28.8 mph N/A   Overcast
7:35 AM 32.0 °F 20.5 °F 26.6 °F 80% 29.92 in 10.0 mi NW 18.4 mph 25.3 mph N/A   Overcast
7:55 AM 30.2 °F 18.5 °F 24.8 °F 80% 29.93 in 10.0 mi NW 17.3 mph 24.2 mph N/A   Overcast
8:15 AM 30.2 °F 18.1 °F 24.8 °F 80% 29.94 in 10.0 mi NW 18.4 mph 27.6 mph N/A   Overcast
8:35 AM 28.4 °F 14.1 °F 23.0 °F 80% 29.96 in 10.0 mi NW 24.2 mph 27.6 mph N/A   Overcast
8:55 AM 28.4 °F 14.4 °F 24.8 °F 86% 29.98 in 10.0 mi NW 23.0 mph 28.8 mph N/A   Overcast
9:15 AM 28.4 °F 14.4 °F 23.0 °F 80% 30.00 in 10.0 mi NW 23.0 mph 28.8 mph N/A   Scattered Clouds
9:35 AM 26.6 °F 13.1 °F 19.4 °F 74% 30.02 in 10.0 mi NW 19.6 mph 26.5 mph N/A   Partly Cloudy
9:55 AM 26.6 °F 13.4 °F 19.4 °F 74% 30.03 in 10.0 mi NW 18.4 mph 26.5 mph N/A   Mostly Cloudy
10:15 AM 26.6 °F 12.0 °F 19.4 °F 74% 30.03 in 10.0 mi NW 23.0 mph 31.1 mph N/A   Overcast
10:35 AM 26.6 °F 12.4 °F 19.4 °F 74% 30.05 in 10.0 mi NW 21.9 mph - N/A   Overcast
10:55 AM 26.6 °F 12.4 °F 19.4 °F 74% 30.06 in 10.0 mi NW 21.9 mph 31.1 mph N/A   Overcast
11:15 AM 26.6 °F 12.7 °F 17.6 °F 69% 30.07 in 10.0 mi NW 20.7 mph 29.9 mph N/A   Overcast
11:35 AM 26.6 °F 14.3 °F 17.6 °F 69% 30.08 in 10.0 mi NW 16.1 mph 27.6 mph N/A   Overcast
11:55 AM 26.6 °F 14.3 °F 19.4 °F 74% 30.08 in 10.0 mi WNW 16.1 mph 26.5 mph N/A   Overcast
12:15 PM 26.6 °F 12.0 °F 19.4 °F 74% 30.09 in 10.0 mi NW 23.0 mph 29.9 mph N/A   Overcast
12:35 PM 26.6 °F 12.4 °F 17.6 °F 69% 30.09 in 10.0 mi NW 21.9 mph 27.6 mph N/A   Overcast
12:55 PM 26.6 °F 12.7 °F 17.6 °F 69% 30.10 in 10.0 mi NW 20.7 mph 28.8 mph N/A   Overcast
1:15 PM 24.8 °F 10.3 °F 17.6 °F 74% 30.11 in 10.0 mi NW 20.7 mph 28.8 mph N/A   Overcast
1:35 PM 24.8 °F 9.6 °F 15.8 °F 69% 30.12 in 10.0 mi WNW 23.0 mph 31.1 mph N/A   Overcast
1:55 PM 24.8 °F 9.6 °F 15.8 °F 69% 30.13 in 10.0 mi NW 23.0 mph 27.6 mph N/A   Overcast
2:15 PM 23.0 °F 8.0 °F 15.8 °F 74% 30.15 in 9.0 mi NW 20.7 mph 26.5 mph N/A   Mostly Cloudy
2:35 PM 23.0 °F 6.3 °F 14.0 °F 68% 30.16 in 10.0 mi NW 26.5 mph 33.4 mph N/A Rain Light Freezing Rain
2:55 PM 23.0 °F 8.7 °F 14.0 °F 68% 30.17 in 9.0 mi NW 18.4 mph 28.8 mph N/A Snow Light Snow
3:15 PM 23.0 °F 8.3 °F 15.8 °F 74% 30.18 in 5.0 mi NW 19.6 mph 26.5 mph 0.01 in Snow Light Snow
3:35 PM 23.0 °F 10.1 °F 14.0 °F 68% 30.20 in 5.0 mi WNW 15.0 mph 31.1 mph 0.04 in Snow Light Snow
3:55 PM 21.2 °F 4.9 °F 14.0 °F 74% 30.21 in 5.0 mi NW 23.0 mph 28.8 mph 0.11 in Snow Light Snow
4:15 PM 21.2 °F 4.5 °F 14.0 °F 74% 30.23 in 2.5 mi NW 24.2 mph 29.9 mph 0.04 in Snow Light Snow
4:35 PM 19.4 °F 1.8 °F 14.0 °F 80% 30.24 in 2.5 mi NW 25.3 mph 32.2 mph 0.23 in Snow Light Snow
4:55 PM 19.4 °F 3.2 °F 14.0 °F 80% 30.26 in 2.0 mi NW 20.7 mph 35.7 mph 0.48 in Snow Light Snow
5:15 PM 19.4 °F 1.4 °F 12.2 °F 74% 30.27 in 5.0 mi NW 26.5 mph 34.5 mph 0.02 in Snow Light Snow
5:35 PM 19.4 °F 2.5 °F 10.4 °F 68% 30.29 in 10.0 mi NW 23.0 mph 32.2 mph 0.04 in Snow Light Snow
5:55 PM 19.4 °F 2.1 °F 10.4 °F 68% 30.30 in 8.0 mi NW 24.2 mph 34.5 mph 0.06 in Snow Light Snow
6:15 PM 17.6 °F 0.1 °F 10.4 °F 73% 30.31 in 10.0 mi NW 23.0 mph 32.2 mph N/A Snow Light Snow
6:35 PM 17.6 °F 0.9 °F 10.4 °F 73% 30.33 in 10.0 mi NW 20.7 mph 31.1 mph N/A   Overcast
6:55 PM 19.4 °F 2.5 °F 10.4 °F 68% 30.34 in 10.0 mi NW 23.0 mph 32.2 mph N/A   Overcast
7:15 PM 19.4 °F 2.8 °F 10.4 °F 68% 30.36 in 10.0 mi NNW 21.9 mph 29.9 mph N/A   Overcast
7:55 PM 17.6 °F -0.6 °F 10.4 °F 73% 30.37 in 10.0 mi NW 25.3 mph 32.2 mph N/A   Overcast
8:15 PM 17.6 °F 1.7 °F 10.4 °F 73% 30.38 in 10.0 mi NW 18.4 mph 27.6 mph N/A   Overcast
8:35 PM 17.6 °F 1.3 °F 10.4 °F 73% 30.40 in 10.0 mi NW 19.6 mph 27.6 mph N/A   Overcast
8:55 PM 19.4 °F 4.1 °F 12.2 °F 74% 30.41 in 10.0 mi NW 18.4 mph 27.6 mph N/A Snow Light Snow
9:15 PM 19.4 °F 4.1 °F 14.0 °F 80% 30.42 in 6.0 mi NW 18.4 mph 26.5 mph 0.01 in Snow Light Snow
9:35 PM 19.4 °F 3.2 °F 12.2 °F 74% 30.43 in 10.0 mi NW 20.7 mph 28.8 mph 0.02 in Snow Light Snow
9:55 PM 17.6 °F -0.6 °F 10.4 °F 73% 30.43 in 9.0 mi NW 25.3 mph 31.1 mph 0.04 in Snow Light Snow
10:15 PM 17.6 °F 0.5 °F 10.4 °F 73% 30.43 in 10.0 mi NW 21.9 mph 33.4 mph N/A Snow Light Snow
10:35 PM 17.6 °F 1.3 °F 10.4 °F 73% 30.43 in 10.0 mi NNW 19.6 mph 33.4 mph N/A Snow Light Snow
10:55 PM 17.6 °F 0.5 °F 8.6 °F 68% 30.44 in 10.0 mi NW 21.9 mph 35.7 mph N/A   Mostly Cloudy
11:15 PM 15.8 °F -1.1 °F 8.6 °F 73% 30.45 in 10.0 mi NW 19.6 mph 28.8 mph N/A   Partly Cloudy
11:35 PM 15.8 °F -1.5 °F 8.6 °F 73% 30.45 in 10.0 mi NW 20.7 mph 28.8 mph N/A   Scattered Clouds
11:55 PM 15.8 °F -0.6 °F 8.6 °F 73% 30.46 in 10.0 mi NNW 18.4 mph 29.9 mph N/A   Scattered Clouds